[[{"header":{"parameterUnit":"m.s-1","parameterCategory":1,"la1":30.2991,"la2":30.254,"lo1":-89.0895,"lo2":-89.0444,"dy":0.0017,"dx":0.0017,"nx":28,"ny":28,"refTime":"2024-07-05T21:00:00:Z","depth":0,"parameterNumber":2,"parameterNumberName":"U-component_of_WINDS"},"data":[0,0,0,0,0,0,0,0,0,0,0,0,0,0,0,0,0,0,0,0,0,0,0,0,0,0,0,0,0,0,0,0,0,0,0,0,0,0,0,0,0,0,0,0,0,0,0,0,0,0,0,0,0,0,0,0,0,0,1.2325,1.2327,0,1.2484,1.2486,1.2487,1.2542,1.2541,1.2541,1.254,1.2703,1.2708,1.2713,0,0,0,0,0,0,0,0,0,0,0,0,0,1.207,1.2074,1.2325,1.2327,1.2329,1.2483,1.2486,1.2488,1.2542,1.2541,1.254,1.254,1.2702,1.2708,1.2714,0,0,0,0,0,0,0,0,0,0,0,0,0,1.22,1.2076,1.2325,1.2375,1.2381,1.2483,1.2486,1.2488,1.2542,1.2541,1.254,1.2539,1.27,1.2707,1.2714,1.2779,0,0,1.2737,1.274,0,0,0,0,0,0,0,0,1.2192,1.2209,1.2365,1.2371,1.2378,1.2492,1.2456,1.2586,1.2542,1.2481,1.254,1.2539,1.2634,1.2647,1.2679,1.2787,1.2794,1.2738,1.2742,1.2745,1.2747,0,0,0,0,0,0,0,1.2183,1.2202,1.2388,1.2367,1.2375,1.2389,1.2407,1.2481,1.2561,1.2486,1.249,1.2508,1.2637,1.2671,1.2683,1.2796,1.2737,1.2744,1.2749,1.2752,1.2965,1.2966,0,0,0,0,0,0,1.2166,1.2195,1.2383,1.2393,1.2281,1.2395,1.2414,1.2456,1.256,1.2575,1.2509,1.251,1.2659,1.2674,1.2689,1.2771,1.2745,1.2752,1.2757,1.2964,1.2965,1.2967,0,0,0,0,0,0,1.216,1.2182,1.2376,1.2295,1.2321,1.24,1.2447,1.246,1.2494,1.2577,1.2592,1.2529,1.2659,1.2678,1.2756,1.2778,1.2756,1.2762,1.2962,1.2964,1.2966,1.2936,0,0,0,0,0,0,1.2152,1.218,1.2205,1.2295,1.2325,1.2441,1.2449,1.2464,1.2507,1.251,1.26,1.2614,1.266,1.2745,1.2763,1.2787,1.2768,1.2961,1.2963,1.2965,1.2936,1.2937,1.2938,0,0,0,0,0,1.2143,1.219,1.2206,1.2228,1.2358,1.2442,1.2459,1.251,1.2508,1.2534,1.2588,1.2611,1.2772,1.2752,1.2774,1.28,1.296,1.2962,1.2965,1.2935,1.2937,1.2938,0,0,0,0,0,0,1.2101,1.2203,1.2221,1.2299,1.2361,1.2451,1.2485,1.251,1.2575,1.2575,1.2636,1.2656,1.2729,1.2773,1.2748,1.2868,1.2867,1.2874,1.2837,1.2839,1.284,1.2828,1.2774,0,0,0,0,0,1.2101,1.216,1.2246,1.2307,1.2337,1.2406,1.2444,1.2478,1.2545,1.2572,1.2631,1.2695,1.2761,1.2802,1.2867,1.2942,1.2963,1.2971,1.2972,1.2973,1.2978,1.3021,1.3026,1.2976,1.2976,1.2976,0,0,1.2101,1.2164,1.2198,1.23,1.2352,1.2412,1.2427,1.2491,1.2536,1.2582,1.2659,1.2704,1.278,1.2857,1.2893,1.2895,1.2997,1.2976,1.2976,1.2982,1.3025,1.3029,1.3033,1.2978,1.2977,1.2977,0,0,1.2132,1.2186,1.2242,1.2294,1.2373,1.2418,1.2431,1.2517,1.2549,1.2627,1.2662,1.2717,1.2828,1.2881,1.2922,1.2972,1.2996,1.2992,1.2998,1.3039,1.3043,1.3047,1.3065,1.307,1.2997,1.2997,1.2997,0,1.2123,1.2215,1.2268,1.2329,1.2373,1.2416,1.2474,1.2522,1.2617,1.2647,1.2647,1.2787,1.2841,1.2931,1.2943,1.2975,1.2992,1.2982,1.3038,1.3042,1.3047,1.3065,1.3071,1.2996,1.2996,1.2996,1.2996,0,1.2199,1.2262,1.2298,1.2389,1.2437,1.2496,1.2558,1.26,1.263,1.2675,1.2754,1.282,1.2899,1.2923,1.2952,1.3016,1.3015,1.3026,1.3026,1.3049,1.3067,1.3075,1.2994,1.2995,1.2995,1.2995,0,0,1.2209,1.2328,1.234,1.2382,1.2472,1.2522,1.2583,1.2659,1.2694,1.2759,1.2811,1.2904,1.2914,1.2961,1.2997,1.3033,1.3069,1.304,1.3042,1.3043,1.3143,1.3135,1.3142,1.3085,1.3086,1.3088,1.3137,0,1.2252,1.2363,1.2412,1.25,1.256,1.2601,1.2654,1.2715,1.2759,1.2816,1.2864,1.2929,1.2937,1.2966,1.3003,1.3056,1.309,1.3053,1.3135,1.3137,1.3115,1.3151,1.3143,1.3186,1.3144,1.3146,1.3146,0,1.2317,1.2381,1.2475,1.2558,1.2585,1.2631,1.2705,1.2759,1.2829,1.2858,1.291,1.2944,1.301,1.3005,1.3096,1.307,1.3106,1.3137,1.314,1.315,1.3143,1.3162,1.3202,1.3208,1.3158,1.3157,1.3156,0,1.2315,1.2425,1.2496,1.253,1.2628,1.266,1.2702,1.2771,1.2813,1.2878,1.2906,1.2978,1.3017,1.3071,1.3124,1.3116,1.321,1.321,1.3237,1.3235,1.3255,1.3254,1.3301,1.3278,1.3278,1.3278,1.3277,0,1.2358,1.2414,1.2496,1.2539,1.2603,1.2659,1.2721,1.2766,1.2827,1.288,1.292,1.2969,1.3036,1.3093,1.3135,1.3204,1.3221,1.3247,1.3257,1.3244,1.324,1.3269,1.3267,1.3279,1.3279,1.3279,1.3278,0,1.2367,1.2424,1.2503,1.2589,1.2612,1.2656,1.2729,1.2773,1.2818,1.2885,1.2904,1.2975,1.3045,1.3102,1.3194,1.3222,1.3294,1.3306,1.327,1.3276,1.3299,1.3296,1.3367,1.3379,1.3347,1.3347,1.3347,0,1.2391,1.2435,1.2525,1.2564,1.2605,1.2666,1.271,1.2767,1.2811,1.2893,1.2927,1.2999,1.306,1.3169,1.3229,1.3299,1.3314,1.3333,1.3324,1.3309,1.3314,1.3311,1.3316,1.3334,1.3334,1.3334,1.3334,0,1.2427,1.2453,1.2514,1.2586,1.2637,1.2695,1.2755,1.2784,1.2852,1.2899,1.2971,1.3018,1.3111,1.3182,1.3258,1.3302,1.333,1.3336,1.3347,1.3333,1.3311,1.3323,1.3272,1.3335,1.3335,1.3335,1.3335,1.3335,1.2445,1.2486,1.2556,1.2623,1.2674,1.2729,1.2774,1.2825,1.2885,1.2965,1.2995,1.3068,1.3136,1.3242,1.3285,1.3344,1.3347,1.3361,1.3365,1.3368,1.3366,1.3301,1.3358,1.3358,1.3358,1.3358,1.3358,0,1.2483,1.253,1.2591,1.2674,1.2726,1.2747,1.2814,1.2857,1.2921,1.2982,1.3041,1.3123,1.3192,1.3257,1.333,1.3364,1.3378,1.3381,1.3379,1.3389,1.3359,1.3343,1.3368,1.3368,1.3368,1.3368,1.3368,1.3368,1.251,1.258,1.2614,1.2711,1.2757,1.2829,1.2866,1.2917,1.2966,1.3055,1.3113,1.3155,1.3218,1.3295,1.336,1.3377,1.3402,1.3401,1.3422,1.3393,1.3391,1.3389,1.3375,1.3406,1.3406,1.3448,1.3448,1.3448]},{"header":{"parameterUnit":"m.s-1","parameterCategory":1,"la1":30.2991,"la2":30.254,"lo1":-89.0895,"lo2":-89.0444,"dy":0.0017,"dx":0.0017,"nx":28,"ny":28,"refTime":"2024-07-05T21:00:00:Z","depth":0,"parameterNumber":3,"parameterNumberName":"V-component_of_WINDS"},"data":[0,0,0,0,0,0,0,0,0,0,0,0,0,0,0,0,0,0,0,0,0,0,0,0,0,0,0,0,0,0,0,0,0,0,0,0,0,0,0,0,0,0,0,0,0,0,0,0,0,0,0,0,0,0,0,0,0,0,5.5916,5.5916,0,5.5898,5.5898,5.5897,5.5853,5.5852,5.5851,5.585,5.5833,5.5833,5.5834,0,0,0,0,0,0,0,0,0,0,0,0,0,5.5915,5.5915,5.5916,5.5916,5.5916,5.5898,5.5898,5.5897,5.5853,5.5852,5.5851,5.585,5.5833,5.5833,5.5834,0,0,0,0,0,0,0,0,0,0,0,0,0,5.5908,5.5915,5.5916,5.5892,5.5889,5.5898,5.5898,5.5897,5.5853,5.5852,5.5851,5.5849,5.5832,5.5833,5.5834,5.5865,0,0,5.5835,5.5836,0,0,0,0,0,0,0,0,5.5908,5.5908,5.5895,5.5893,5.5891,5.5876,5.5891,5.5887,5.5854,5.5867,5.585,5.5849,5.5848,5.5848,5.5847,5.5865,5.5864,5.5836,5.5836,5.5836,5.5836,0,0,0,0,0,0,0,5.5909,5.5908,5.5909,5.5895,5.5892,5.5882,5.5879,5.589,5.5866,5.5866,5.5862,5.5861,5.5847,5.5847,5.5847,5.5864,5.5836,5.5836,5.5836,5.5837,5.5907,5.5908,0,0,0,0,0,0,5.5913,5.5909,5.591,5.5908,5.5896,5.5883,5.588,5.5882,5.5866,5.5862,5.5862,5.5859,5.5846,5.5846,5.5846,5.5882,5.5836,5.5837,5.5837,5.5905,5.5907,5.5909,0,0,0,0,0,0,5.5913,5.5913,5.591,5.5908,5.5907,5.5885,5.5887,5.5883,5.5882,5.5863,5.5858,5.5866,5.5845,5.5845,5.5861,5.5881,5.5837,5.5838,5.5903,5.5906,5.5908,5.5955,0,0,0,0,0,0,5.5913,5.5913,5.5925,5.5908,5.5907,5.5925,5.5888,5.5883,5.5884,5.5879,5.5866,5.5862,5.5844,5.586,5.5862,5.5881,5.5838,5.5902,5.5904,5.5907,5.5951,5.5958,5.5964,0,0,0,0,0,5.5913,5.5939,5.5926,5.5926,5.5921,5.5927,5.5926,5.5904,5.5885,5.5897,5.5884,5.5862,5.5879,5.5862,5.5863,5.5883,5.59,5.5904,5.5907,5.5948,5.5957,5.5964,0,0,0,0,0,0,5.5959,5.5936,5.5921,5.5943,5.5937,5.5919,5.5933,5.5914,5.5914,5.591,5.5884,5.5881,5.5901,5.5893,5.5876,5.5913,5.5886,5.589,5.5917,5.5925,5.5931,5.5933,5.5839,0,0,0,0,0,5.5971,5.5977,5.5958,5.5978,5.5976,5.5955,5.5957,5.5941,5.5934,5.5932,5.592,5.5915,5.5918,5.5921,5.5924,5.595,5.5947,5.5965,5.5971,5.5977,5.598,5.5994,5.6001,5.592,5.592,5.592,0,0,5.5997,5.5986,5.5991,5.5987,5.5981,5.5988,5.5953,5.5963,5.5968,5.5933,5.5947,5.5939,5.5931,5.5953,5.5961,5.5947,5.6002,5.5981,5.5985,5.5986,5.5998,5.6006,5.6013,5.5922,5.5922,5.5921,0,0,5.6048,5.604,5.6056,5.6051,5.6041,5.6027,5.6031,5.6017,5.601,5.6023,5.5997,5.6004,5.6011,5.6006,5.6005,5.6055,5.6035,5.6057,5.6091,5.6104,5.6111,5.6116,5.6134,5.6141,5.606,5.6061,5.6061,0,5.6081,5.6091,5.6067,5.6078,5.6077,5.6046,5.6063,5.6059,5.6051,5.6051,5.6036,5.6044,5.6036,5.6057,5.6069,5.6069,5.6073,5.6058,5.6112,5.6117,5.6122,5.6139,5.6146,5.6063,5.6063,5.6063,5.6062,0,5.6132,5.614,5.6154,5.6147,5.6148,5.6162,5.6141,5.6145,5.613,5.6117,5.6132,5.6122,5.6122,5.6126,5.6111,5.6144,5.6136,5.6116,5.6088,5.6133,5.6148,5.6155,5.6067,5.6066,5.6065,5.6065,0,0,5.6211,5.6191,5.6197,5.6193,5.6181,5.6186,5.6199,5.6199,5.6203,5.6199,5.6209,5.6216,5.6198,5.6197,5.6181,5.6193,5.6234,5.6172,5.6172,5.6184,5.627,5.6285,5.6293,5.6221,5.6222,5.6223,5.6271,0,5.6259,5.6279,5.6258,5.6283,5.6289,5.626,5.6271,5.6265,5.6255,5.6259,5.6247,5.6253,5.6229,5.6228,5.6238,5.6226,5.6251,5.6223,5.623,5.6231,5.6233,5.6301,5.6316,5.6362,5.6277,5.6278,5.6278,0,5.6317,5.6315,5.634,5.6327,5.6329,5.6339,5.6337,5.6342,5.6335,5.6326,5.6325,5.6306,5.6318,5.6291,5.6308,5.6289,5.6291,5.6286,5.6287,5.6287,5.6257,5.6302,5.6376,5.6383,5.6288,5.6287,5.6286,0,5.6371,5.6375,5.6391,5.6389,5.6374,5.6382,5.6376,5.6367,5.6369,5.6367,5.6368,5.6369,5.6369,5.637,5.6352,5.6334,5.6371,5.6342,5.6365,5.6365,5.6373,5.6373,5.6449,5.6375,5.6375,5.6375,5.6375,0,5.6426,5.6443,5.6415,5.6425,5.6443,5.642,5.6438,5.6429,5.6422,5.643,5.6405,5.6413,5.6388,5.6394,5.638,5.6396,5.6397,5.639,5.6386,5.6392,5.6393,5.6393,5.6389,5.6377,5.6376,5.6376,5.6376,0,5.649,5.6472,5.6487,5.6472,5.6468,5.6482,5.6469,5.6478,5.6465,5.6476,5.6477,5.6458,5.6463,5.6445,5.6448,5.6438,5.6462,5.6453,5.6465,5.6462,5.6485,5.6483,5.6563,5.6572,5.6493,5.6494,5.6495,0,5.6526,5.6538,5.6524,5.6527,5.6523,5.6528,5.6529,5.6508,5.651,5.6503,5.6513,5.6516,5.6517,5.6527,5.6514,5.6516,5.6507,5.6535,5.6507,5.6513,5.6507,5.6507,5.6508,5.654,5.6541,5.6542,5.6543,0,5.6593,5.6583,5.6586,5.6585,5.6587,5.6586,5.6583,5.6587,5.6564,5.6568,5.6573,5.6574,5.6576,5.658,5.6579,5.6574,5.6555,5.6552,5.6557,5.6563,5.6569,5.6566,5.648,5.655,5.6549,5.6549,5.6548,5.6548,5.6644,5.6653,5.6645,5.6648,5.6644,5.6642,5.6649,5.6638,5.6642,5.6642,5.6629,5.6637,5.663,5.6627,5.6623,5.6629,5.6617,5.6624,5.6626,5.6628,5.6632,5.6569,5.6629,5.6629,5.6629,5.6629,5.6628,0,5.6709,5.6702,5.6706,5.6702,5.6705,5.6687,5.6683,5.6687,5.6694,5.6689,5.6691,5.6697,5.6701,5.6688,5.669,5.6697,5.6689,5.6699,5.6698,5.6697,5.6644,5.6639,5.6706,5.6706,5.6706,5.6706,5.6705,5.6705,5.6743,5.6758,5.6748,5.6761,5.6754,5.6761,5.676,5.6758,5.6755,5.6762,5.6765,5.6757,5.6749,5.675,5.6753,5.6749,5.6751,5.6764,5.6758,5.6708,5.6701,5.6693,5.6689,5.6765,5.6765,5.681,5.6811,5.6811]}]]